This demonstration page uses our WeatherBlox Daily Observations layout. Learn more.

40.92945, -100.16068

Hourly Observations for March 3, 2020

Temp ( °F °C ) Dew Point ( °F °C ) Humidity (%) Winds ( mph kmh ) Pressure ( in mb ) Visibility ( mi km ) Precip ( " mm )
12:15 am 00:15 Clear 34 1.2 25 -4 69 69 NW 13 20 29.85 1011 10 16.0934 0 0
12:35 am 00:35 Clear 33 0.3 25 -3.8 74 74 WNW 9 15 29.86 1011 10 16.0934 0 0
12:55 am 00:55 Clear 32 0 26 -3.5 78 78 WNW 9 15 29.88 1012 10 16.0934 0 0
1:15 am 01:15 Clear 31 -0.5 26 -3.5 80 80 WNW 10 17 29.88 1012 10 16.0934 0 0
1:35 am 01:35 Clear 31 -0.5 26 -3.5 80 80 WNW 9 15 29.88 1012 10 16.0934 0 0
1:55 am 01:55 Clear 31 -0.8 26 -3.6 82 82 WNW 8 13 29.88 1012 10 16.0934 0 0
2:15 am 02:15 Clear 30 -1 25 -3.7 82 82 WNW 10 17 29.89 1012 10 16.0934 0 0
2:35 am 02:35 Clear 30 -1 25 -4 80 80 W 8 13 29.9 1012 10 16.0934 0 0
2:55 am 02:55 Clear 30 -1.3 25 -4 82 82 WNW 8 13 29.9 1012 10 16.0934 0 0
3:15 am 03:15 Clear 30 -1.1 25 -3.8 82 82 WNW 8 13 29.9 1012 10 16.0934 0 0
3:35 am 03:35 Clear 30 -1.1 25 -4 81 81 WNW 6 9 29.9 1012 10 16.0934 0 0
3:55 am 03:55 Clear 29 -1.8 25 -4.1 84 84 NW 5 7 29.9 1013 10 16.0934 0 0
4:15 am 04:15 Clear 28 -2.1 24 -4.2 86 86 WNW 7 11 29.91 1013 10 16.0934 0 0
4:35 am 04:35 Clear 28 -2.5 24 -4.3 88 88 W 8 13 29.91 1013 10 16.0934 0 0
4:55 am 04:55 Clear 28 -2 25 -4 86 86 NW 6 9 29.93 1013 10 16.0934 0 0
5:15 am 05:15 Clear 27 -2.9 24 -4.5 89 89 NW 7 11 29.94 1014 10 16.0934 0 0
5:35 am 05:35 Clear 28 -2.5 24 -4.5 86 86 WNW 10 17 29.94 1014 10 16.0934 0 0
5:55 am 05:55 Clear 28 -2.5 24 -4.3 88 88 WNW 9 15 29.94 1014 10 16.0934 0 0
6:15 am 06:15 Clear 28 -2.2 24 -4.2 86 86 WNW 10 17 29.95 1014 10 16.0934 0 0
6:35 am 06:35 Clear 30 -1 25 -3.8 82 82 WNW 12 19 29.94 1014 10 16.0934 0 0
6:55 am 06:55 Clear 30 -1 25 -3.7 82 82 WNW 13 20 29.93 1013 10 16.0934 0 0
7:15 am 07:15 Sunny 30 -1 26 -3.6 83 83 WNW 9 15 29.94 1014 10 16.0934 0 0
7:35 am 07:35 Sunny 29 -1.5 26 -3.5 86 86 W 7 11 29.93 1014 10 16.0934 0 0
7:55 am 07:55 Sunny 30 -0.9 26 -3.1 85 85 WNW 9 15 29.94 1014 10 16.0934 0 0
8:15 am 08:15 Sunny 32 0.2 27 -3 79 79 WNW 9 15 29.92 1013 10 16.0934 0 0
8:35 am 08:35 Sunny 35 1.4 28 -2.5 76 76 W 9 15 29.91 1013 10 16.0934 0 0
8:55 am 08:55 Sunny 37 2.5 28 -2.1 72 72 W 13 20 29.91 1013 10 16.0934 0 0
9:15 am 09:15 Sunny 39 4 28 -2.4 63 63 WNW 10 17 29.9 1012 10 16.0934 0 0
9:35 am 09:35 Sunny 41 5.1 28 -2.2 60 60 WNW 13 20 29.9 1012 10 16.0934 0 0
9:55 am 09:55 Sunny 44 6.5 28 -2.1 55 55 WNW 14 22 29.87 1012 10 16.0934 0 0
10:15 am 10:15 Sunny 46 7.6 28 -2.1 51 51 W 15 24 29.85 1011 10 16.0934 0 0
10:35 am 10:35 Sunny 47 8.6 28 -2.2 47 47 WNW 15 24 29.84 1011 10 16.0934 0 0
10:55 am 10:55 Sunny 50 10 28 -2.4 42 42 W 13 20 29.83 1010 10 16.0934 0 0
11:15 am 11:15 Sunny 51 10.6 26 -3.1 38 38 W 13 20 29.82 1010 10 16.0934 0 0
11:35 am 11:35 Sunny 53 11.5 26 -3.4 35 35 W 15 24 29.8 1009 10 16.0934 0 0
11:55 am 11:55 Sunny 54 12 27 -3 35 35 WNW 17 28 29.78 1009 10 16.0934 0 0
12:15 pm 12:15 Sunny 55 12.6 27 -2.8 34 34 WNW 15 24 29.77 1008 10 16.0934 0 0
12:35 pm 12:35 Sunny 56 13.4 28 -2.4 34 34 W 13 20 29.75 1007 10 16.0934 0 0
12:55 pm 12:55 Sunny 57 14 26 -3.3 30 30 W 22 35 29.74 1007 10 16.0934 0 0
1:15 pm 13:15 Sunny 58 14.6 26 -3.3 29 29 WNW 29 46 29.73 1007 10 16.0934 0 0
1:35 pm 13:35 Sunny 59 14.9 27 -2.9 29 29 W 21 33 29.72 1006 10 16.0934 0 0
1:55 pm 13:55 Sunny 60 15.3 28 -2.4 30 30 W 28 44 29.7 1006 10 16.0934 0 0
2:15 pm 14:15 Sunny 60 15.7 27 -2.9 28 28 W 28 44 29.69 1005 10 16.0934 0 0
2:35 pm 14:35 Sunny 60 15.6 26 -3.2 27 27 W 28 44 29.69 1005 10 16.0934 0 0
2:55 pm 14:55 Partly Cloudy 60 15.5 26 -3.4 27 27 WSW 21 33 29.68 1005 10 16.0934 0 0
3:15 pm 15:15 Partly Cloudy 60 15.7 26 -3.3 27 27 WSW 22 35 29.68 1005 10 16.0934 0 0
3:35 pm 15:35 Sunny 60 15.5 26 -3.3 27 27 WSW 16 26 29.68 1005 10 16.0934 0 0
3:55 pm 15:55 Sunny 61 15.9 26 -3.2 27 27 WSW 24 39 29.68 1005 10 16.0934 0 0
4:15 pm 16:15 Sunny 61 16.1 26 -3.3 26 26 WSW 21 33 29.68 1005 10 16.0934 0 0
4:35 pm 16:35 Partly Cloudy 61 16.2 26 -3.5 26 26 WSW 21 33 29.69 1005 10 16.0934 0 0
4:55 pm 16:55 Cloudy 60 15.6 26 -3.1 28 28 WSW 14 22 29.68 1005 10 16.0934 0 0
5:15 pm 17:15 Cloudy 59 15 28 -2.4 30 30 W 13 20 29.7 1006 10 16.0934 0 0
5:35 pm 17:35 Cloudy 58 14.3 29 -1.8 33 33 W 15 24 29.71 1006 10 16.0934 0 0
5:55 pm 17:55 Cloudy 57 13.7 30 -0.9 37 37 NW 12 19 29.73 1007 10 16.0934 0 0
6:15 pm 18:15 Cloudy 55 13 31 -0.6 39 39 WNW 9 15 29.75 1008 10 16.0934 0 0
6:35 pm 18:35 Cloudy 55 12.6 30 -1 39 39 NW 13 20 29.77 1008 10 16.0934 0 0
6:55 pm 18:55 Partly Cloudy 51 10.5 30 -1.3 44 44 NW 12 19 29.81 1009 10 16.0934 0 0
7:15 pm 19:15 Partly Cloudy 48 9.1 30 -1.2 49 49 NW 15 24 29.84 1010 10 16.0934 0 0
7:35 pm 19:35 Partly Cloudy 49 9.7 29 -1.4 46 46 NW 14 22 29.86 1011 10 16.0934 0 0
7:55 pm 19:55 Clear 49 9.4 30 -1.3 48 48 NW 20 31 29.88 1012 10 16.0934 0 0
8:15 pm 20:15 Clear 47 8.6 30 -1 51 51 NW 17 28 29.89 1012 10 16.0934 0 0
8:35 pm 20:35 Clear 46 7.5 31 -0.4 58 58 NW 13 20 29.92 1013 10 16.0934 0 0
8:55 pm 20:55 Clear 44 6.6 33 0.3 64 64 WNW 14 22 29.94 1014 10 16.0934 0 0
9:15 pm 21:15 Partly Cloudy 42 5.7 33 0.5 70 70 WNW 13 20 29.96 1015 10 16.0934 0 0
9:35 pm 21:35 Mostly Cloudy 43 5.9 34 1 71 71 WNW 15 24 29.97 1015 10 16.0934 0 0
9:55 pm 21:55 Mostly Cloudy 41 5.1 33 0.6 73 73 WNW 12 19 30 1016 10 16.0934 0 0
10:15 pm 22:15 Clear 41 4.9 33 0.5 73 73 WNW 12 19 30.01 1016 10 16.0934 0 0
10:35 pm 22:35 Clear 39 3.9 32 0.1 77 77 WNW 10 17 30.03 1017 10 16.0934 0 0
10:55 pm 22:55 Clear 37 2.9 32 0 81 81 W 9 15 30.05 1018 10 16.0934 0 0
11:15 pm 23:15 Clear 35 1.9 31 -0.7 83 83 NW 7 11 30.07 1018 10 16.0934 0 0
11:35 pm 23:35 Clear 35 1.5 30 -1 84 84 WNW 9 15 30.07 1018 10 16.0934 0 0
11:55 pm 23:55 Clear 35 1.7 30 -1 82 82 WNW 6 9 30.08 1019 10 16.0934 0 0

Powered by AerisWeather